Location: Earls Croome
(52.0667°N, 2.2000°W)
Time: 02:10:33
(UTC+00:00)

COSMOS 2455 - Pass Details

Date: 01 March 2020
Orbit: 901 x 909 km, 67.2° (Epoch: 06 April)

Event Time Altitude Azimuth Distance (km) Brightness Sun altitude
Exits shadow 03:56:04 - 326° (NW) 2,668 5.2 -27.5°
Reaches altitude 10° 03:56:15 10° 326° (NW) 2,602 5.1 -27.5°
Maximum altitude 04:02:09 53° 43° (NE) 1,115 3.5 -26.7°
Drops below altitude 10° 04:08:01 10° 120° (ESE) 2,592 5.7 -25.9°
Sets 04:10:36 0° 125° (SE) 3,531 6.4 -25.5°
